Regional Weather Roundup
Issued by NWS

Home | Current Version | Previous Version | Graphics & Text | Print | Product List | Glossary Off
Versions: 1 2 3 4 5 6 7 8 9 10 11 12 13 14 15 16 17 18 19 20 21 22 23 24 25 26 27 28 29 30 31 32 33 34 35 36 37 38 39 40 41 42 43 44 45 46 47 48 49 50

000
ASUS43 KDMX 211006
RWRIA

WEATHER ROUNDUP FOR IOWA
NATIONAL WEATHER SERVICE DES MOINES IA
400 AM CST WED FEB 21 2018

NOTE: "FAIR" INDICATES FEW OR NO CLOUDS BELOW 12,000 FEET WITH NO
SIGNIFICANT WEATHER AND/OR OBSTRUCTIONS TO VISIBILITY.

* - THESE STATIONS ARE NOT NWS STATIONS...THUS NOT UNDER NWS
QUALITY CONTROL.  THEY ALSO DO NOT REPORT WEATHER SUCH
AS PRECIPITATION OR FOG.

IAZ001>003-012>014-020>022-031>034-043>046-211100-
   NORTHWEST IOWA

CITY           SKY/WX    TMP DP  RH WIND       PRES   REMARKS
CARROLL *      CLEAR      9   5  85 NW14      30.50R WCI  -8
CHEROKEE *     PTCLDY     5   1  83 NW8       30.52R WCI  -8
DENISON *      CLEAR      7   3  85 N6        30.52S WCI  -3
LE MARS *      CLOUDY     3  -2  78 NW5       30.54R WCI  -6
ORANGE CITY *  CLEAR      0  -2  92 NW7       30.50S WCI -13
SHELDON *      CLEAR     -2  -6  84 W6        30.49S WCI -14
SIOUX CITY     CLEAR      2  -2  83 NW3       30.55R
SPENCER        MIX PCPN   3  -2  79 W9        30.49R WCI -12
STORM LAKE *   CLEAR      5   1  85 NW9       30.48S WCI  -9
$$

IAZ055>058-069>071-079>083-090>094-211100-
   SOUTHWEST IOWA

CITY           SKY/WX    TMP DP  RH WIND       PRES   REMARKS
ATLANTIC *     CLEAR     10   5  79 N9        30.51R WCI  -2
AUDUBON *      CLEAR      9   3  78 CALM      30.50R
CLARINDA *     CLEAR     12   9  85 N10       30.54R WCI  -1
COUNCIL BLFS * CLEAR      9   9 100 NW9       30.51R WCI  -5
CRESTON *      CLOUDY    10   7  85 N13       30.48S WCI  -5
HARLAN  *      CLEAR      9   5  85 N10       30.55R WCI  -6
LAMONI         CLOUDY    13   8  81 N15G22    30.45S WCI  -3
RED OAK *      PTCLDY    10   5  79 N9        30.52R WCI  -2
SHENANDOAH *   CLEAR     12   7  79 N9        30.53S WCI   0
$$

IAZ047>049-059>061-072>074-084-211100-
   CENTRAL IOWA

CITY           SKY/WX    TMP DP  RH WIND       PRES   REMARKS
AMES           CLEAR     12   5  73 N8        30.51R WCI   0
ANKENY *       CLEAR     12   7  79 N10G17    30.51R WCI  -1
BOONE *        CLEAR     10   7  85 MISG      30.48R
CHARITON *     CLOUDY    14  12  92 NW12      30.48R WCI   0
DES MOINES     PTCLDY    13   7  77 N7        30.50R WCI   3
GRINNELL*      PTCLDY    15  10  83 NW13      30.47R WCI   0
KNOXVILLE *    MOCLDY    14   7  73 N14       30.47R WCI  -1
MARSHALLTOWN   PTCLDY    12   7  80 N15       30.47R WCI  -4
NEWTON *       PTCLDY    14   9  79 N13       30.48R WCI   0
PELLA *        PTCLDY    15   9  78 N8G16     30.50R WCI   4
PERRY *        FAIR      11   6  81 N12       30.51R WCI  -3
$$

IAZ004>006-015-016-023>025-035-036-211100-
   NORTH CENTRAL IOWA

CITY           SKY/WX    TMP DP  RH WIND       PRES   REMARKS
ALGONA *       CLEAR      7 N/A N/A NW8       30.47S WCI  -6
CLARION *      CLEAR      9   9 100 NW9       30.48S WCI  -5
ESTHERVILLE    CLEAR      2  -2  83 W9        30.48R WCI -13
FORT DODGE *   CLEAR      7   2  80 NW5       30.49S WCI  -2
MASON CITY     CLEAR      7   2  80 NW9       30.48R WCI  -7
FOREST CITY *  FAIR      10   5  79 NW6       30.47S WCI   1
WEBSTER CITY * CLEAR      9   3  78 NW10      30.47R WCI  -6
IOWA FALLS *   FAIR      12   7  79 NW10      30.48R WCI  -1
$$

IAZ007>011-017>019-026>030-037>042-050>054-066-211100-
   NORTHEAST IOWA

CITY           SKY/WX    TMP DP  RH WIND       PRES   REMARKS
CEDAR RAPIDS   FAIR      17  10  74 NW17      30.43R WCI   1
CHARLES CITY * FAIR      10   7  85 NW14      30.46R WCI  -5
CLINTON *      CLOUDY    22  16  78 MISG        N/A
DECORAH *      FAIR      10   5  79 NW13      30.42R WCI  -5
DUBUQUE        FAIR      17  11  77 NW12      30.40R WCI   4
MONTICELLO *   FAIR      18  10  73 NW12G18   30.43R WCI   5
OELWEIN *      FAIR      12  10  92 NW16      30.45R WCI  -4
WATERLOO       FAIR      12   6  77 NW16      30.47R WCI  -5
$$

IAZ064-065-067-068-078-211100-
   EAST CENTRAL IOWA

CITY           SKY/WX    TMP DP  RH WIND       PRES   REMARKS
DAVENPORT      MOCLDY    22  14  71 NW14      30.44R WCI   9
IOWA CITY      FAIR      20  10  65 N14G22    30.47R WCI   7
MT. PLEASANT * PTCLDY    21  14  73 N15       30.45R WCI   8
MUSCATINE *    FAIR      21  14  73 N12       30.46R WCI   9
QUAD CITIES    MOCLDY    23  16  74 NW14      30.42R WCI  11
$$

IAZ062-063-075>077-085>089-095>099-211100-
   SOUTHEAST IOWA

CITY           SKY/WX    TMP DP  RH WIND       PRES   REMARKS
BURLINGTON     CLOUDY    22  14  71 NW12G22   30.43R WCI  10
FAIRFIELD *    CLOUDY    19  12  73 N14G20    30.46R WCI   6
FORT MADISON * PTCLDY    21  18  86 NW13      30.44R WCI   9
KEOKUK *       CLOUDY    21  18  86 NW6G13    30.44R WCI  14
OSKALOOSA *    FAIR      17  13  84 N10       30.48R WCI   5
OTTUMWA        PTCLDY    18  11  74 NW18      30.47R WCI   2
WASHINGTON *   CLOUDY    19  16  86 N15       30.46R WCI   5
$$

ABBREVIATIONS USED IN REMARKS
   TC - TEMPERATURES IN CELSIUS
  WCI - WIND CHILL INDEX
   HX - HEAT INDEX
  VSB - VISIBILITY
$$




USA.gov is the U.S. government's official web portal to all federal, state and local government web resources and services.